Location: Unspecified
(1.8487°N, 0.0000°E)
Time: 03:13:03
(UTC+00:00)

Transit 2A - All Passes

Search period start: 04 April 2026 00:00
Search period end: 14 April 2026 00:00
Orbit: 591 x 953 km, 66.7° (Epoch: 29 March)

Date Brightness Start Highest point End Pass type
(mag) Time Alt. Az. Time Alt. Az. Time Alt. Az.
4 Apr - 01:12:06 10° WSW 01:16:48 24° WNW 01:21:41 10° NNW night (unlit)
4 Apr - 12:02:22 10° NNW 12:07:00 87° WSW 12:11:21 10° SSE daylight
4 Apr - 22:53:42 10° SSE 22:57:38 18° ESE 23:01:41 10° ENE night (unlit)
5 Apr - 00:34:50 10° SW 00:40:24 39° WNW 00:46:12 10° N night (unlit)
5 Apr - 11:26:13 10° N 11:30:39 46° ENE 11:34:50 10° SE daylight
5 Apr - 23:58:05 10° SSW 00:04:00 67° WNW 00:10:15 10° NNE night (unlit)
6 Apr - 10:50:34 10° NNE 10:54:16 24° ENE 10:57:47 10° ESE daylight
6 Apr - 12:34:36 10° WNW 12:36:54 14° WSW 12:39:08 10° SW daylight
6 Apr - 23:21:41 10° SSW 23:27:39 75° ESE 23:33:55 10° NNE night (unlit)
7 Apr - 10:15:57 10° NE 10:17:50 12° ENE 10:19:38 10° E daylight
7 Apr - 11:56:47 10° NW 12:00:35 27° WSW 12:04:15 10° SSW daylight
7 Apr - 22:45:41 10° S 22:51:19 44° ESE 22:57:13 10° NE night (unlit)
8 Apr - 00:30:32 10° WSW 00:34:15 17° WNW 00:38:05 10° NNW night (unlit)
8 Apr - 11:19:50 10° NNW 11:24:17 53° WSW 11:28:30 10° S daylight
8 Apr - 22:10:06 10° SSE 22:15:00 26° ESE 22:20:04 10° NE night (unlit)
8 Apr - 23:52:44 10° SW 23:57:49 28° WNW 00:03:05 10° NNW night (unlit)
9 Apr - 10:43:23 10° NNW 10:47:58 74° ENE 10:52:16 10° SSE daylight
9 Apr - 21:35:19 10° SE 21:38:40 15° ESE 21:42:05 10° ENE night (unlit)
9 Apr - 23:15:39 10° SW 23:21:24 47° WNW 23:27:24 10° N night (unlit)
10 Apr - 10:07:22 10° N 10:11:36 36° ENE 10:15:35 10° SE daylight
10 Apr - 22:39:00 10° SSW 22:45:01 79° WNW 22:51:19 10° NNE night (unlit)
11 Apr - 09:31:57 10° NNE 09:35:10 19° ENE 09:38:17 10° ESE daylight
11 Apr - 11:14:56 10° WNW 11:17:51 17° WSW 11:20:41 10° SSW daylight
11 Apr - 22:02:43 10° S 22:08:40 63° ESE 22:14:52 10° NNE night (unlit)
11 Apr - 23:49:57 10° W 23:51:42 11° WNW 23:53:27 10° NW night (unlit)
12 Apr - 10:37:29 10° NW 10:41:32 33° WSW 10:45:25 10° S daylight
12 Apr - 21:26:49 10° S 21:32:19 37° ESE 21:38:02 10° NE night (unlit)
12 Apr - 23:10:54 10° WSW 23:15:14 20° WNW 23:19:39 10° NNW night (unlit)
13 Apr - 10:00:43 10° NNW 10:05:13 68° WSW 10:09:30 10° SSE daylight
13 Apr - 20:51:26 10° SSE 20:55:59 22° ESE 21:00:41 10° ENE night (unlit)
13 Apr - 22:33:23 10° SW 22:38:47 33° WNW 22:44:21 10° N night (unlit)
